Key West NAF, FL

9:31 PM EDT on October 21, 2017 (GMT -0400)
Key West Naval Air Station

Weather History for KNQX - October, 2011

Change the Weather History Date:

Sunday, October 30, 2011

  Actual Average Record
Temperature  
Mean Temperature 76 °F -  
Max Temperature 80 °F 82 °F 89 °F (1993)
Min Temperature 73 °F 74 °F 65 °F (1952)
Cooling Degree Days 12    
Growing Degree Days 26 (Base 50)    
Moisture  
Dew Point 72 °F    
Average Humidity 84    
Maximum Humidity 89    
Minimum Humidity 78    
Precipitation  
Precipitation 0.01 in - - ()
Sea Level Pressure  
Sea Level Pressure 29.92 in    
Wind  
Wind Speed 8 mph (NE)    
Max Wind Speed 14 mph    
Max Gust Speed 22 mph    
Visibility 10 miles    
Events      
Averages and records for this station are not official NWS values.
T = Trace of Precipitation, MM = Missing Value Source: NWS Daily Summary

Daily Weather History Graph

Daily Weather History Graph

Search for Another Location

Airport or City:

Trip Planner

Search our weather history database for the weather conditions in past years. The results will help you decide how hot, cold, wet, or windy it might be!

Date:

Astronomy

Oct. 30, 2011 Rise Set
Actual Time 7:32 AM EDT 6:48 PM EDT
Civil Twilight 7:08 AM EDT 7:11 PM EDT
Nautical Twilight 6:42 AM EDT 7:38 PM EDT
Astronomical Twilight 6:15 AM EDT 8:05 PM EDT
Moon 11:32 AM EDT (10/30) 10:32 PM EDT (10/30)
Length of Visible Light 12h 02m
Length of Day
11h 15m
Waxing Crescent, 20% of the Moon is Illuminated
Oct 30
Waxing Crescent
Nov 2
First Quarter
Nov 10
Full
Nov 18
Last Quarter
Nov 25
New

Hourly Weather History & Observations

Time (EDT) Temp. Heat Index Dew Point Humidity Pressure Visibility Wind Dir Wind Speed Gust Speed Precip Events Conditions
12:33 AM - - - N/A% 29.90 in 10.0 mi North 3.5 mph - N/A   Partly Cloudy
12:53 AM - - - N/A% 29.90 in 10.0 mi NNE 5.8 mph - N/A   Mostly Cloudy
1:06 AM - - - N/A% 29.90 in 10.0 mi North 5.8 mph - N/A   Overcast
1:20 AM - - - N/A% 29.90 in 10.0 mi NNE 8.1 mph - N/A   Mostly Cloudy
1:51 AM - - - N/A% 29.90 in 10.0 mi NNE 8.1 mph - N/A   Scattered Clouds
1:53 AM - - - N/A% 29.90 in 10.0 mi NNE 6.9 mph - N/A   Scattered Clouds
2:01 AM - - - N/A% 29.90 in 10.0 mi NE 6.9 mph - N/A   Mostly Cloudy
2:28 AM - - - N/A% 29.89 in 10.0 mi NE 9.2 mph - N/A   Scattered Clouds
2:51 AM - - - N/A% 29.89 in 10.0 mi NE 10.4 mph - N/A   Mostly Cloudy
2:53 AM - - - N/A% 29.89 in 10.0 mi NE 8.1 mph - N/A   Mostly Cloudy
3:26 AM - - - N/A% 29.88 in 10.0 mi NE 5.8 mph - N/A   Scattered Clouds
3:53 AM - - - N/A% 29.88 in 10.0 mi NE 5.8 mph - N/A   Partly Cloudy
4:14 AM - - - N/A% 29.88 in 10.0 mi NE 6.9 mph - N/A   Mostly Cloudy
4:53 AM - - - N/A% 29.88 in 10.0 mi NE 10.4 mph 17.3 mph N/A   Overcast
5:53 AM 78.8 °F - 75.2 °F 89% 29.89 in 10.0 mi NE 12.7 mph 20.7 mph 0.01 in   Overcast
6:53 AM 75.2 °F - 69.8 °F 83% 29.91 in 10.0 mi NNE 11.5 mph 21.9 mph N/A   Overcast
7:53 AM 73.4 °F - 68.0 °F 83% 29.93 in 10.0 mi NE 13.8 mph - N/A   Mostly Cloudy
8:53 AM 73.4 °F - 68.0 °F 83% 29.95 in 10.0 mi NNE 9.2 mph 18.4 mph N/A   Mostly Cloudy
9:53 AM 75.2 °F - 71.6 °F 89% 29.97 in 10.0 mi NE 9.2 mph 18.4 mph N/A   Mostly Cloudy
10:53 AM 77.0 °F - 71.6 °F 83% 29.98 in 10.0 mi NE 10.4 mph 17.3 mph N/A   Overcast
11:53 AM 77.0 °F - 71.6 °F 83% 29.98 in 10.0 mi NE 9.2 mph - N/A   Overcast
12:53 PM 77.0 °F - 71.6 °F 83% 29.96 in 10.0 mi ENE 6.9 mph - N/A   Mostly Cloudy
1:53 PM 78.8 °F - 73.4 °F 83% 29.94 in 10.0 mi East 12.7 mph - N/A   Overcast
2:53 PM 78.8 °F - 73.4 °F 83% 29.94 in 10.0 mi ENE 10.4 mph 16.1 mph N/A   Mostly Cloudy
3:53 PM 80.6 °F 85.4 °F 73.4 °F 79% 29.92 in 10.0 mi ENE 10.4 mph 18.4 mph N/A   Mostly Cloudy
4:53 PM 78.8 °F - 73.4 °F 83% 29.92 in 10.0 mi East 13.8 mph - N/A   Mostly Cloudy
5:53 PM 78.8 °F - 71.6 °F 78% 29.93 in 10.0 mi ENE 13.8 mph 20.7 mph N/A   Mostly Cloudy
6:53 PM 78.8 °F - 71.6 °F 78% 29.94 in 10.0 mi ENE 8.1 mph - N/A   Mostly Cloudy
7:53 PM 78.8 °F - 73.4 °F 83% 29.95 in 10.0 mi ENE 9.2 mph - N/A   Mostly Cloudy
8:53 PM 77.0 °F - 73.4 °F 89% 29.96 in 10.0 mi NE 9.2 mph - N/A   Mostly Cloudy
9:53 PM 77.0 °F - 73.4 °F 89% 29.97 in 10.0 mi Variable 4.6 mph - N/A   Mostly Cloudy
10:53 PM - - - N/A% 29.98 in 10.0 mi East 5.8 mph - N/A   Clear
11:53 PM - - - N/A% 29.97 in 10.0 mi East 6.9 mph - N/A   Clear